Year,Month,Day,Hour,Minute,Value (Times are PST for temperature in C)
2017,03,07,00,00,3.70
2017,03,07,00,01,3.70
2017,03,07,00,02,3.70
2017,03,07,00,03,3.70
2017,03,07,00,04,3.70
2017,03,07,00,05,3.70
2017,03,07,00,06,3.60
2017,03,07,00,07,3.60
2017,03,07,00,08,3.60
2017,03,07,00,09,3.60
2017,03,07,00,10,3.60
2017,03,07,00,11,3.60
2017,03,07,00,12,3.60
2017,03,07,00,13,3.60
2017,03,07,00,14,3.60
2017,03,07,00,15,3.60
2017,03,07,00,16,3.60
2017,03,07,00,17,3.60
2017,03,07,00,18,3.60
2017,03,07,00,19,3.60
2017,03,07,00,20,3.60
2017,03,07,00,21,3.60
2017,03,07,00,22,3.50
2017,03,07,00,23,3.50
2017,03,07,00,24,3.50
2017,03,07,00,25,3.50
2017,03,07,00,26,3.50
2017,03,07,00,27,3.40
2017,03,07,00,28,3.40
2017,03,07,00,29,3.40
2017,03,07,00,30,3.40
2017,03,07,00,31,3.40
2017,03,07,00,32,3.40
2017,03,07,00,33,3.40
2017,03,07,00,34,3.40
2017,03,07,00,35,3.40
2017,03,07,00,36,3.40
2017,03,07,00,37,3.40
2017,03,07,00,38,3.40
2017,03,07,00,39,3.40
2017,03,07,00,40,3.40
2017,03,07,00,41,3.40
2017,03,07,00,42,3.40
2017,03,07,00,43,3.40
2017,03,07,00,44,3.40
2017,03,07,00,45,3.40
2017,03,07,00,46,3.40
2017,03,07,00,47,3.40
2017,03,07,00,48,3.40
2017,03,07,00,49,3.40
2017,03,07,00,50,3.40
2017,03,07,00,51,3.40
2017,03,07,00,52,3.40
2017,03,07,00,53,3.40
2017,03,07,00,54,3.40
2017,03,07,00,55,3.40
2017,03,07,00,56,3.40
2017,03,07,00,57,3.40
2017,03,07,00,58,3.40
2017,03,07,00,59,3.40
2017,03,07,01,00,3.40
2017,03,07,01,01,3.40
2017,03,07,01,02,3.40
2017,03,07,01,03,3.40
2017,03,07,01,04,3.40
2017,03,07,01,05,3.40
2017,03,07,01,06,3.40
2017,03,07,01,07,3.40
2017,03,07,01,08,3.40
2017,03,07,01,09,3.40
2017,03,07,01,10,3.40
2017,03,07,01,11,3.40
2017,03,07,01,12,3.40
2017,03,07,01,13,3.40
2017,03,07,01,14,3.40
2017,03,07,01,15,3.40
2017,03,07,01,16,3.40
2017,03,07,01,17,3.40
2017,03,07,01,18,3.40
2017,03,07,01,19,3.40
2017,03,07,01,20,3.40
2017,03,07,01,21,3.40
2017,03,07,01,22,3.40
2017,03,07,01,23,3.40
2017,03,07,01,24,3.40
2017,03,07,01,25,3.40
2017,03,07,01,26,3.40
2017,03,07,01,27,3.40
2017,03,07,01,28,3.40
2017,03,07,01,29,3.40
2017,03,07,01,30,3.40
2017,03,07,01,31,3.40
2017,03,07,01,32,3.40
2017,03,07,01,33,3.40
2017,03,07,01,34,3.40
2017,03,07,01,35,3.40
2017,03,07,01,36,3.40
2017,03,07,01,37,3.40
2017,03,07,01,38,3.40
2017,03,07,01,39,3.40
2017,03,07,01,40,3.40
2017,03,07,01,41,3.40
2017,03,07,01,42,3.40
2017,03,07,01,43,3.40
2017,03,07,01,44,3.40
2017,03,07,01,45,3.40
2017,03,07,01,46,3.40
2017,03,07,01,47,3.40
2017,03,07,01,48,3.40
2017,03,07,01,49,3.40
2017,03,07,01,50,3.50
2017,03,07,01,51,3.50
2017,03,07,01,52,3.50
2017,03,07,01,53,3.50
2017,03,07,01,54,3.50
2017,03,07,01,55,3.50
2017,03,07,01,56,3.50
2017,03,07,01,57,3.50
2017,03,07,01,58,3.50
2017,03,07,01,59,3.50
2017,03,07,02,00,3.50
2017,03,07,02,01,3.50
2017,03,07,02,02,3.50
2017,03,07,02,03,3.50
2017,03,07,02,04,3.50
2017,03,07,02,05,3.50
2017,03,07,02,06,3.50
2017,03,07,02,07,3.40
2017,03,07,02,08,3.40
2017,03,07,02,09,3.40
2017,03,07,02,10,3.40
2017,03,07,02,11,3.40
2017,03,07,02,12,3.40
2017,03,07,02,13,3.40
2017,03,07,02,14,3.40
2017,03,07,02,15,3.40
2017,03,07,02,16,3.40
2017,03,07,02,17,3.40
2017,03,07,02,18,3.40
2017,03,07,02,19,3.40
2017,03,07,02,20,3.40
2017,03,07,02,21,3.40
2017,03,07,02,22,3.40
2017,03,07,02,23,3.40
2017,03,07,02,24,3.40
2017,03,07,02,25,3.40
2017,03,07,02,26,3.40
2017,03,07,02,27,3.40
2017,03,07,02,28,3.30
2017,03,07,02,29,3.30
2017,03,07,02,30,3.30
2017,03,07,02,31,3.30
2017,03,07,02,32,3.30
2017,03,07,02,33,3.30
2017,03,07,02,34,3.30
2017,03,07,02,35,3.30
2017,03,07,02,36,3.30
2017,03,07,02,37,3.30
2017,03,07,02,38,3.20
2017,03,07,02,39,3.20
2017,03,07,02,40,3.20
2017,03,07,02,41,3.20
2017,03,07,02,42,3.20
2017,03,07,02,43,3.20
2017,03,07,02,44,3.20
2017,03,07,02,45,3.10
2017,03,07,02,46,3.10
2017,03,07,02,47,3.10
2017,03,07,02,48,3.00
2017,03,07,02,49,3.00
2017,03,07,02,50,2.90
2017,03,07,02,51,2.90
2017,03,07,02,52,2.80
2017,03,07,02,53,2.80
2017,03,07,02,54,2.80
2017,03,07,02,55,2.80
2017,03,07,02,56,2.70
2017,03,07,02,57,2.70
2017,03,07,02,58,2.70
2017,03,07,02,59,2.70
2017,03,07,03,00,2.60
2017,03,07,03,01,2.60
2017,03,07,03,02,2.60
2017,03,07,03,03,2.50
2017,03,07,03,04,2.50
2017,03,07,03,05,2.50
2017,03,07,03,06,2.40
2017,03,07,03,07,2.40
2017,03,07,03,08,2.40
2017,03,07,03,09,2.40
2017,03,07,03,10,2.50
2017,03,07,03,11,2.50
2017,03,07,03,12,2.50
2017,03,07,03,13,2.50
2017,03,07,03,14,2.50
2017,03,07,03,15,2.50
2017,03,07,03,16,2.50
2017,03,07,03,17,2.50
2017,03,07,03,18,2.50
2017,03,07,03,19,2.60
2017,03,07,03,20,2.60
2017,03,07,03,21,2.60
2017,03,07,03,22,2.60
2017,03,07,03,23,2.60
2017,03,07,03,24,2.60
2017,03,07,03,25,2.70
2017,03,07,03,26,2.70
2017,03,07,03,27,2.70
2017,03,07,03,28,2.80
2017,03,07,03,29,2.80
2017,03,07,03,30,2.80
2017,03,07,03,31,2.80
2017,03,07,03,32,2.80
2017,03,07,03,33,2.90
2017,03,07,03,34,2.90
2017,03,07,03,35,2.90
2017,03,07,03,36,2.90
2017,03,07,03,37,2.90
2017,03,07,03,38,2.80
2017,03,07,03,39,2.80
2017,03,07,03,40,2.80
2017,03,07,03,41,2.80
2017,03,07,03,42,2.80
2017,03,07,03,43,2.80
2017,03,07,03,44,2.80
2017,03,07,03,45,2.80
2017,03,07,03,46,2.80
2017,03,07,03,47,2.70
2017,03,07,03,48,2.70
2017,03,07,03,49,2.70
2017,03,07,03,50,2.70
2017,03,07,03,51,2.70
2017,03,07,03,52,2.70
2017,03,07,03,53,2.70
2017,03,07,03,54,2.70
2017,03,07,03,55,2.60
2017,03,07,03,56,2.60
2017,03,07,03,57,2.60
2017,03,07,03,58,2.60
2017,03,07,03,59,2.60
2017,03,07,04,00,2.60
2017,03,07,04,01,2.60
2017,03,07,04,02,2.60
2017,03,07,04,03,2.60
2017,03,07,05,04,3.20
2017,03,07,05,05,3.30
2017,03,07,05,06,3.30
2017,03,07,05,07,3.30
2017,03,07,05,08,3.30
2017,03,07,05,09,3.30
2017,03,07,05,10,3.30
2017,03,07,05,11,3.30
2017,03,07,05,12,3.30
2017,03,07,05,13,3.30
2017,03,07,05,14,3.30
2017,03,07,05,15,3.30
2017,03,07,05,16,3.30
2017,03,07,05,17,3.30
2017,03,07,05,18,3.40
2017,03,07,05,19,3.30
2017,03,07,05,20,3.30
2017,03,07,05,21,3.30
2017,03,07,05,22,3.30
2017,03,07,05,23,3.30
2017,03,07,05,24,3.30
2017,03,07,05,25,3.30
2017,03,07,05,26,3.30
2017,03,07,05,27,3.30
2017,03,07,05,28,3.30
2017,03,07,05,29,3.30
2017,03,07,05,30,3.30
2017,03,07,05,31,3.30
2017,03,07,05,32,3.30
2017,03,07,05,33,3.30
2017,03,07,05,34,3.30
2017,03,07,05,35,3.30
2017,03,07,05,36,3.30
2017,03,07,05,37,3.30
2017,03,07,05,38,3.30
2017,03,07,05,39,3.30
2017,03,07,05,40,3.30
2017,03,07,05,41,3.30
2017,03,07,05,42,3.30
2017,03,07,05,43,3.30
2017,03,07,05,44,3.30
2017,03,07,05,45,3.30
2017,03,07,05,46,3.20
2017,03,07,05,47,3.20
2017,03,07,05,48,3.20
2017,03,07,05,49,3.20
2017,03,07,05,50,3.20
2017,03,07,05,51,3.20
2017,03,07,05,52,3.20
2017,03,07,05,53,3.20
2017,03,07,05,54,3.30
2017,03,07,05,55,3.30
2017,03,07,05,56,3.30
2017,03,07,05,57,3.30
2017,03,07,05,58,3.30
2017,03,07,05,59,3.30
2017,03,07,06,00,3.30
2017,03,07,06,01,3.30
2017,03,07,06,02,3.30
2017,03,07,06,03,3.30
2017,03,07,06,04,3.30
2017,03,07,06,05,3.30
2017,03,07,06,06,3.30
2017,03,07,06,07,3.30
2017,03,07,06,08,3.30
2017,03,07,06,09,3.30
2017,03,07,06,10,3.30
2017,03,07,06,11,3.30
2017,03,07,06,12,3.30
2017,03,07,06,13,3.30
2017,03,07,06,14,3.30
2017,03,07,06,15,3.30
2017,03,07,06,16,3.30
2017,03,07,06,17,3.30
2017,03,07,06,18,3.30
2017,03,07,06,19,3.30
2017,03,07,06,20,3.30
2017,03,07,06,21,3.30
2017,03,07,06,22,3.30
2017,03,07,06,23,3.30
2017,03,07,06,24,3.30
2017,03,07,06,25,3.30
2017,03,07,06,26,3.30
2017,03,07,06,27,3.30
2017,03,07,06,28,3.30
2017,03,07,06,29,3.30
2017,03,07,06,30,3.30
2017,03,07,06,31,3.30
2017,03,07,06,32,3.30
2017,03,07,06,33,3.30
2017,03,07,06,34,3.30
2017,03,07,06,35,3.30
2017,03,07,06,36,3.30
2017,03,07,06,37,3.30
2017,03,07,06,38,3.30
2017,03,07,06,39,3.30
2017,03,07,06,40,3.30
2017,03,07,06,41,3.30
2017,03,07,06,42,3.30
2017,03,07,06,43,3.30
2017,03,07,06,44,3.20
2017,03,07,06,45,3.30
2017,03,07,06,46,3.30
2017,03,07,06,47,3.30
2017,03,07,06,48,3.30
2017,03,07,06,49,3.20
2017,03,07,06,50,3.20
2017,03,07,06,51,3.20
2017,03,07,06,52,3.30
2017,03,07,06,53,3.30
2017,03,07,06,54,3.30
2017,03,07,06,55,3.30
2017,03,07,06,56,3.30
2017,03,07,06,57,3.30
2017,03,07,06,58,3.40
2017,03,07,06,59,3.40
2017,03,07,07,00,3.40
2017,03,07,07,01,3.40
2017,03,07,07,02,3.40
2017,03,07,07,03,3.50
2017,03,07,07,04,3.50
2017,03,07,07,05,3.50
2017,03,07,07,06,3.50
2017,03,07,07,07,3.50
2017,03,07,07,08,3.60
2017,03,07,07,09,3.60
2017,03,07,07,10,3.60
2017,03,07,07,11,3.60
2017,03,07,07,12,3.60
2017,03,07,07,13,3.60
2017,03,07,07,14,3.60
2017,03,07,07,15,3.60
2017,03,07,07,16,3.60
2017,03,07,07,17,3.60
2017,03,07,07,18,3.60
2017,03,07,07,19,3.60
2017,03,07,07,20,3.60
2017,03,07,07,21,3.60
2017,03,07,07,22,3.60
2017,03,07,07,23,3.60
2017,03,07,07,24,3.60
2017,03,07,07,25,3.60
2017,03,07,07,26,3.60
2017,03,07,07,27,3.60
